Tiempo cada hora Abasolo

Hoy, 2 Diciembre, Miércoles

Tiempo Temperatura Precipitaciones Viento Presión Humedad
00:00 +13°C° 0 mm 1 mps 620 mmHg 81%
01:00 +12°C° 0 mm 1 mps 619 mmHg 85%
02:00 +12°C° 0 mm 1 mps 619 mmHg 89%
03:00 +10°C° 0 mm 0 mps 619 mmHg 90%
04:00 +10°C° 0 mm 0 mps 619 mmHg 91%
05:00 +10°C° 0 mm 0 mps 619 mmHg 92%
06:00 +12°C° 0 mm 0 mps 620 mmHg 82%
07:00 +14°C° 0 mm 0 mps 621 mmHg 73%
08:00 +16°C° 0 mm 0 mps 622 mmHg 63%
09:00 +21°C° 0 mm 1 mps 623 mmHg 50%
10:00 +23°C° 0 mm 2 mps 624 mmHg 38%
11:00 +26°C° 0 mm 2 mps 624 mmHg 25%
12:00 +27°C° 0 mm 3 mps 624 mmHg 23%
13:00 +27°C° 0 mm 3 mps 623 mmHg 21%
14:00 +27°C° 0 mm 3 mps 623 mmHg 19%
15:00 +26°C° 0 mm 3 mps 622 mmHg 23%
16:00 +24°C° 0 mm 2 mps 622 mmHg 27%
17:00 +21°C° 0 mm 2 mps 621 mmHg 32%
18:00 +19°C° 0 mm 2 mps 621 mmHg 41%
19:00 +17°C° 0 mm 2 mps 621 mmHg 50%
20:00 +15°C° 0 mm 1 mps 621 mmHg 59%
21:00 +14°C° 0 mm 1 mps 621 mmHg 64%
22:00 +13°C° 0 mm 1 mps 620 mmHg 69%
23:00 +12°C° 0 mm 0 mps 620 mmHg 74%

Mañana, 3 Diciembre, Jueves

Tiempo Temperatura Precipitaciones Viento Presión Humedad
00:00 +11°C° 0 mm 0 mps 620 mmHg 77%
01:00 +11°C° 0 mm 0 mps 619 mmHg 80%
02:00 +10°C° 0 mm 0 mps 619 mmHg 83%
03:00 +10°C° 0 mm 0 mps 619 mmHg 85%
04:00 +9°C° 0 mm 0 mps 619 mmHg 86%
05:00 +9°C° 0 mm 0 mps 618 mmHg 88%
06:00 +11°C° 0 mm 0 mps 620 mmHg 78%
07:00 +14°C° 0 mm 0 mps 621 mmHg 69%
08:00 +16°C° 0 mm 0 mps 622 mmHg 60%
09:00 +20°C° 0 mm 1 mps 623 mmHg 50%
10:00 +23°C° 0 mm 1 mps 623 mmHg 40%
11:00 +25°C° 0 mm 2 mps 624 mmHg 31%
12:00 +26°C° 0 mm 2 mps 623 mmHg 28%
13:00 +27°C° 0 mm 3 mps 623 mmHg 25%
14:00 +27°C° 0 mm 4 mps 622 mmHg 22%
15:00 +25°C° 0 mm 3 mps 622 mmHg 28%
16:00 +22°C° 0 mm 3 mps 621 mmHg 33%
17:00 +21°C° 0 mm 3 mps 621 mmHg 38%
18:00 +19°C° 0 mm 2 mps 621 mmHg 47%
19:00 +17°C° 0 mm 2 mps 621 mmHg 56%
20:00 +15°C° 0 mm 1 mps 621 mmHg 65%
21:00 +14°C° 0 mm 1 mps 621 mmHg 69%
22:00 +14°C° 0 mm 1 mps 620 mmHg 73%
23:00 +13°C° 0 mm 1 mps 620 mmHg 77%

Pasado mañana, 4 Diciembre, Viernes

Tiempo Temperatura Precipitaciones Viento Presión Humedad
00:00 +12°C° 0 mm 1 mps 620 mmHg 80%
01:00 +12°C° 0 mm 1 mps 619 mmHg 84%
02:00 +10°C° 0 mm 0 mps 619 mmHg 87%
03:00 +10°C° 0 mm 0 mps 619 mmHg 88%
04:00 +10°C° 0 mm 0 mps 619 mmHg 89%
05:00 +9°C° 0 mm 0 mps 619 mmHg 90%
06:00 +12°C° 0 mm 0 mps 620 mmHg 80%
07:00 +14°C° 0 mm 0 mps 621 mmHg 70%
08:00 +16°C° 0 mm 0 mps 622 mmHg 60%
09:00 +20°C° 0 mm 1 mps 622 mmHg 51%
10:00 +23°C° 0 mm 2 mps 623 mmHg 42%
11:00 +26°C° 0 mm 3 mps 623 mmHg 33%
12:00 +25°C° 0 mm 3 mps 622 mmHg 34%
13:00 +25°C° 0 mm 4 mps 622 mmHg 34%
14:00 +25°C° 0 mm 4 mps 621 mmHg 35%
15:00 +23°C° 0 mm 4 mps 621 mmHg 39%
16:00 +21°C° 0 mm 4 mps 621 mmHg 44%
17:00 +20°C° 0 mm 3 mps 621 mmHg 49%
18:00 +18°C° 0 mm 2 mps 621 mmHg 58%
19:00 +16°C° 0 mm 2 mps 621 mmHg 68%
20:00 +14°C° 0 mm 1 mps 621 mmHg 77%
21:00 +13°C° 0 mm 1 mps 621 mmHg 79%
22:00 +13°C° 0 mm 1 mps 620 mmHg 82%
23:00 +11°C° 0 mm 0 mps 620 mmHg 85%

5 Diciembre, Sábado

Tiempo Temperatura Precipitaciones Viento Presión Humedad
00:00 +11°C° 0 mm 0 mps 620 mmHg 86%
01:00 +10°C° 0 mm 0 mps 619 mmHg 88%
02:00 +10°C° 0 mm 0 mps 619 mmHg 90%
03:00 +10°C° 0 mm 0 mps 619 mmHg 91%
04:00 +9°C° 0 mm 0 mps 619 mmHg 91%
05:00 +9°C° 0 mm 0 mps 619 mmHg 92%
06:00 +11°C° 0 mm 0 mps 621 mmHg 83%
07:00 +13°C° 0 mm 0 mps 622 mmHg 74%
08:00 +15°C° 0 mm 0 mps 623 mmHg 66%
09:00 +18°C° 0 mm 0 mps 624 mmHg 55%
10:00 +22°C° 0 mm 0 mps 625 mmHg 45%
11:00 +25°C° 0 mm 0 mps 626 mmHg 35%
12:00 +27°C° 0 mm 1 mps 625 mmHg 32%
13:00 +26°C° 0 mm 2 mps 624 mmHg 29%
14:00 +26°C° 0 mm 2 mps 623 mmHg 26%
15:00 +24°C° 0 mm 2 mps 623 mmHg 30%
16:00 +22°C° 0 mm 3 mps 622 mmHg 34%
17:00 +20°C° 0 mm 3 mps 622 mmHg 38%
18:00 +18°C° 0 mm 2 mps 622 mmHg 43%
19:00 +16°C° 0 mm 1 mps 622 mmHg 47%
20:00 +14°C° 0 mm 1 mps 622 mmHg 52%
21:00 +14°C° 0 mm 1 mps 621 mmHg 55%
22:00 +12°C° 0 mm 0 mps 621 mmHg 58%
23:00 +11°C° 0 mm 0 mps 621 mmHg 61%

6 Diciembre, Domingo

Tiempo Temperatura Precipitaciones Viento Presión Humedad
00:00 +12°C° 0 mm 1 mps 621 mmHg 64%
01:00 +12°C° 0 mm 1 mps 621 mmHg 68%
02:00 +12°C° 0 mm 1 mps 620 mmHg 71%
03:00 +12°C° 0 mm 1 mps 620 mmHg 74%
04:00 +11°C° 0 mm 1 mps 620 mmHg 76%
05:00 +11°C° 0 mm 1 mps 620 mmHg 79%
06:00 +11°C° 0.6 mm 1 mps 621 mmHg 80%
07:00 +12°C° 0.6 mm 1 mps 622 mmHg 82%
08:00 +12°C° 0.6 mm 1 mps 622 mmHg 83%
09:00 +12°C° 0.6 mm 1 mps 622 mmHg 83%
10:00 +12°C° 0.6 mm 1 mps 622 mmHg 83%
11:00 +13°C° 0.6 mm 1 mps 622 mmHg 83%
12:00 +13°C° 0.1 mm 1 mps 622 mmHg 79%
13:00 +14°C° 0.1 mm 1 mps 621 mmHg 76%
14:00 +14°C° 0.1 mm 1 mps 621 mmHg 72%
15:00 +14°C° 0 mm 1 mps 621 mmHg 73%
16:00 +14°C° 0 mm 1 mps 621 mmHg 74%
17:00 +14°C° 0 mm 1 mps 621 mmHg 76%
18:00 +13°C° 0 mm 1 mps 621 mmHg 81%
19:00 +11°C° 0 mm 1 mps 621 mmHg 86%
20:00 +10°C° 0 mm 1 mps 621 mmHg 91%
21:00 +10°C° 0 mm 1 mps 620 mmHg 92%
22:00 +10°C° 0 mm 1 mps 620 mmHg 92%
23:00 +8°C° 0 mm 0 mps 620 mmHg 92%

7 Diciembre, Lunes

Tiempo Temperatura Precipitaciones Viento Presión Humedad
00:00 +8°C° 0 mm 0 mps 620 mmHg 92%
01:00 +8°C° 0 mm 0 mps 619 mmHg 92%
02:00 +8°C° 0 mm 0 mps 619 mmHg 92%
03:00 +7°C° 0 mm 0 mps 619 mmHg 92%
04:00 +7°C° 0 mm 0 mps 619 mmHg 92%
05:00 +7°C° 0 mm 0 mps 619 mmHg 92%
06:00 +9°C° 0 mm 0 mps 620 mmHg 84%
07:00 +10°C° 0 mm 0 mps 621 mmHg 76%
08:00 +13°C° 0 mm 1 mps 622 mmHg 69%
09:00 +16°C° 0 mm 1 mps 623 mmHg 59%
10:00 +20°C° 0 mm 1 mps 623 mmHg 50%
11:00 +23°C° 0 mm 1 mps 624 mmHg 41%
12:00 +24°C° 0 mm 1 mps 624 mmHg 38%
13:00 +25°C° 0 mm 1 mps 623 mmHg 35%
14:00 +26°C° 0 mm 1 mps 623 mmHg 32%
15:00 +24°C° 0 mm 1 mps 623 mmHg 35%
16:00 +22°C° 0 mm 1 mps 622 mmHg 37%
17:00 +21°C° 0 mm 1 mps 622 mmHg 40%
18:00 +20°C° 0 mm 1 mps 622 mmHg 42%
19:00 +19°C° 0 mm 1 mps 622 mmHg 45%
20:00 +18°C° 0 mm 1 mps 623 mmHg 47%
21:00 +18°C° 0 mm 1 mps 623 mmHg 51%
22:00 +16°C° 0 mm 1 mps 622 mmHg 56%
23:00 +15°C° 0 mm 2 mps 622 mmHg 60%
Mostrar más

Necesitamos Su Consentimiento

Meteoprog y nuestros Proveedores de Servicios pueden almacenar y acceder a sus datos personales como cookies, identificadores de dispositivo u otras tecnologías similares de su dispositivo y procesar dichos datos para personalizar contenido y anuncios, además de ofrecer funciones de redes sociales y analizar el tráfico.

  • Almacenar y/o acceder a información en su dispositivo

    Se puede almacenar o acceder a cookies, identificadores de dispositivo u otra información de su dispositivo para los fines anteriormente indicados.

  • Anuncios y contenido personalizados, medición de anuncios y contenido, percepciones del público, y desarrollo de productos

    Los anuncios y el contenido pueden personalizarse en base a su perfil. Se pueden añadir más datos para personalizar mejor los anuncios y contenidos. Se puede medir el rendimiento de los anuncios y contenidos. Se puede obtener la percepción sobre el público que ha visto los anuncios y contenidos. Dichos datos pueden usarse para desarrollar o mejorar la experiencia del usuario, sistemas y software.

Al hacer clic en ‘Estoy De Acuerdo’ usted permitirá el uso de las cookies, identificadores de dispositivo, balizas web u otras tecnologías similares indicadas. Su configuración puede cambiarse desde el navegador de su dispositivo.

Para ciertos fines, los intereses legítimos pueden ser considerados por encima del consentimiento. Puede leer más sobre ello en nuestra Política de Privacidad y Cookies.